2022-132C (54037 NORAD) Tracking and Keplerian Element Data

This shows tracking and keplerian element data for the satellite.

Feedback or suggestion? Click here.




ElementValue
Catalog54037
Name2022-132C
Epoch Orbit328
Epoch Day308.17061592
Epoch Year2022
RAAN312.651
Inclination97.6531
Eccentricity0.0188678
Argument of Perigee99.5067
Mean Anonmoly262.7613
Mean Motion14.80591251
Decay Rate0.00023577
L11 54037U 22132C 22308.17061592 .00023577 00000+0 22611-2 0 9992
L22 54037 97.6531 312.6510 0188678 99.5067 262.7613 14.80591251 3280



Live tracking and technical data element details for 2022-132C (NORAD 54037). 2022-132C can be tracked NOW for your location showing map with azimuth and elevation plus other details from your city location.







IsCatalogInMostPopularTable: catalog: 54037, numindb: 6
Update: records affected: 1



GetName: 54037 2022-132C

Hit Count: updated at: Sun, 28 May 2023 20:37:32 GMT